Flag for Switzerland Weather past 2 weeks in Lucerne, Lucerne, Switzerland

Now
49 °F

Cool.


Feels Like: 48 °F
Forecast: 31 / 42 °F
Wind: 3 mph from Northeast

Location: Giswil

Current Time: Mar 3, 2015 at 6:27:45 PM

Latest Report: Mar 3, 2015 at 5:00 PM


Visibility: N/A

Pressure: 30.19 "Hg

Humidity: 48%

Dew point: 30 °F

Location of LucerneLocation

Historic Weather in Lucerne — Graph

°F

Lucerne temperature yesterday

Maximum temperature yesterday: 53 °F (at 1:00 PM)
Minimum temperature yesterday: 41 °F (at 7:00 PM)
Average temperature yesterday: 47 °F

Past Weeks' High & Low Weather Summary

 TemperatureHumidityPressure
High53 °F (Mar 2, 1:00 PM)100% (Feb 16, 6:00 PM)30.72 "Hg (Feb 16, 6:00 PM)
Low20 °F (Feb 20, 6:00 AM)31% (Feb 26, 4:00 PM)29.59 "Hg (Feb 21, 3:00 PM)
Average35 °F89%30.11 "Hg
* Reported Feb 16 5:00 PM — Mar 3 5:00 PM, Lucerne, Weather by CustomWeather, © 2015

Note: Actual official high and low records may vary slightly from our data, if they occured in-between our weather recording intervals... More about our weather records

Advertising

Lucerne weather history for previous 24 hours

 ConditionsComfort  
Time TempWeatherWind HumidityBarometerVisibility
5:00 PM
Tue, Mar 3
49 °FCool.3 mph48%30.19 "HgN/A
4:00 PM49 °FCool.3 mph52%30.19 "HgN/A
3:00 PM51 °FCool.3 mph46%30.19 "HgN/A
2:00 PM50 °FCool.2 mph45%30.21 "HgN/A
1:00 PM49 °FCool.3 mph50%30.23 "HgN/A
12:00 PM46 °FCool.2 mph55%30.25 "HgN/A
11:00 AM43 °FQuite cool.2 mph72%30.27 "HgN/A
10:00 AM40 °FChilly.2 mph85%30.29 "HgN/A
9:00 AM36 °FChilly.No wind92%30.31 "HgN/A
8:00 AM34 °FChilly.1 mph96%30.32 "HgN/A
7:00 AM33 °FChilly.2 mph98%30.32 "HgN/A
6:00 AM32 °FChilly.1 mph98%30.32 "HgN/A
5:00 AM34 °FChilly.No wind97%30.32 "HgN/A
4:00 AM34 °FChilly.1 mph97%30.30 "HgN/A
3:00 AM37 °FChilly.1 mph92%30.28 "HgN/A
2:00 AM38 °FChilly.3 mph85%30.28 "HgN/A
1:00 AM38 °FChilly.10 mph86%30.28 "HgN/A
12:00 AM39 °FChilly.5 mph86%30.27 "HgN/A
11:00 PM
Mon, Mar 2
41 °FQuite cool.3 mph77%30.24 "HgN/A
9:00 PM46 °FCool.13 mph49%30.13 "HgN/A
8:00 PM48 °FCool.9 mph47%30.07 "HgN/A
7:00 PM41 °FQuite cool.3 mph85%30.07 "HgN/A
6:00 PM45 °FQuite cool.5 mph69%30.03 "HgN/A
Weather by CustomWeather, © 2015

See weather overviewHow to use our weather pages